KCMH

Port Columbus International

Airport
ICAO code
KCMH
Summary
ICAO Region
NAM
ICAO Territory
Location

Columbus, Ohio,

Coordinates
39° 59' 54" N , 82° 53' 33" W
KCC
Airport LOS
Parallel Runway Operation
Metar
KCMH 151651Z 03007KT 10SM FEW250 26/09 A3016 RMK AO2 SLP205 T02610089

Description

Port Columbus International Airport, commonly shortened to Port Columbus, is an international airport located 10 km east of downtown Columbus, Ohio, USA.

Climatology

Humid “subtropical” climate (Köppen climate classification Cfa) - characterized by hot, humid summers and cool winters. Significant amounts of precipitation occur in all seasons in most areas. Winter rainfall (and sometimes snowfall) is associated with large storms that the westerlies steer from west to east. Most summer rainfall occurs during thunderstorms.

Airport map

Aerial View

SKYbrary Partners:

Safety knowledge contributed by: